sat.trackr.live / text

‹ back to catalog

2023-085V

NORAD 57023 · 2023-085V

PAYLOAD ACTIVE UNKNOWN

§ Identity

Operator
Country
PRC
Launch date
2023-06-15
Launch site
TAISC
Launch vehicle
Mass (kg)
RCS (m²)

External: N2YO · Heavens-Above · Gunter

§ Orbital elements

Epoch: 2026-05-25T04:44:32.296128Z

Period
93.94 min
Inclination
97.4922°
Eccentricity
0.0006955
Mean motion
15.32922363 rev/d
Perigee alt
462.3 km
Apogee alt
471.9 km
Semi-major
6,845.2 km
B*
4.5729e-4
RAAN
256.5048°
Arg perigee
142.4115°
Mean anomaly
217.7614°
Rev number
16,317

§ Raw data

2023-085V1 57023U 23085V   26145.19759602  .00014483  00000+0  45729-3 0  99912 57023  97.4922 256.5048 0006955 142.4115 217.7614 15.32922363163177

JSON: /api/v1/satellites/57023 · /tle

For live sub-satellite position, see the globe view (requires WebGL).

§ Visibility from observer

Set your observer location to see the next 7 days of passes ≥ 10°. The values pass through the URL so the page stays shareable.

No JS? Fill the form by hand. The geolocation button needs JavaScript.